• In Belarus
  • List of Countries
  • For 7 days
  • Water Temperature
  • Satellite Maps
  • Weather Map
  • Weather Widgets
  • user-avatar
    Login

    Hourly Weather Kuesnacht

    Today, 14 December, Thursday

    Time Temperature Precipitation Wind Pressure Humidity
    00:00 +1°C° 0.5 mm 4 mps 707 mmHg 78%
    01:00 +2°C° 0 mm 5 mps 706 mmHg 80%
    02:00 +3°C° 0.5 mm 5 mps 706 mmHg 81%
    03:00 +3°C° 0.5 mm 5 mps 706 mmHg 83%
    04:00 +3°C° 0.5 mm 6 mps 707 mmHg 84%
    05:00 +3°C° 0.5 mm 6 mps 707 mmHg 85%
    06:00 +3°C° 0.5 mm 6 mps 707 mmHg 86%
    07:00 +3°C° 0.5 mm 6 mps 708 mmHg 86%
    08:00 +2°C° 0.6 mm 5 mps 708 mmHg 88%
    09:00 +2°C° 0.6 mm 5 mps 708 mmHg 89%
    10:00 +3°C° 0.6 mm 4 mps 708 mmHg 90%
    11:00 +3°C° 0.8 mm 4 mps 708 mmHg 89%
    12:00 +3°C° 0.8 mm 4 mps 708 mmHg 89%
    13:00 +3°C° 0.8 mm 4 mps 707 mmHg 88%
    14:00 +3°C° 0.7 mm 3 mps 707 mmHg 89%
    15:00 +3°C° 0.7 mm 3 mps 706 mmHg 90%
    16:00 +2°C° 0.7 mm 3 mps 706 mmHg 91%
    17:00 +2°C° 1.5 mm 3 mps 705 mmHg 91%
    18:00 +2°C° 1.5 mm 3 mps 705 mmHg 92%
    19:00 +2°C° 1.5 mm 3 mps 704 mmHg 92%
    20:00 +2°C° 2.5 mm 3 mps 704 mmHg 92%
    21:00 +2°C° 2.5 mm 3 mps 703 mmHg 93%
    22:00 +2°C° 2.5 mm 3 mps 703 mmHg 93%
    23:00 +2°C° 1.8 mm 3 mps 702 mmHg 92%

    Tomorrow, 15 December, Friday

    Time Temperature Precipitation Wind Pressure Humidity
    00:00 +2°C° 1.8 mm 3 mps 702 mmHg 92%
    01:00 +3°C° 1.8 mm 3 mps 702 mmHg 91%
    02:00 +1°C° 2 mm 4 mps 703 mmHg 90%
    03:00 +1°C° 2 mm 4 mps 703 mmHg 90%
    04:00 0°C° 2 mm 5 mps 704 mmHg 90%
    05:00 0°C° 0.2 mm 4 mps 704 mmHg 89%
    06:00 -1°C° 0.2 mm 4 mps 705 mmHg 89%
    07:00 -1°C° 0.2 mm 3 mps 705 mmHg 88%
    08:00 0°C° 0 mm 3 mps 705 mmHg 87%
    09:00 0°C° 0 mm 3 mps 706 mmHg 85%
    10:00 0°C° 0 mm 3 mps 706 mmHg 83%
    11:00 +1°C° 0 mm 3 mps 705 mmHg 82%
    12:00 +2°C° 0 mm 3 mps 705 mmHg 81%
    13:00 +3°C° 0 mm 3 mps 705 mmHg 79%
    14:00 +2°C° 0 mm 3 mps 705 mmHg 81%
    15:00 +2°C° 0 mm 2 mps 705 mmHg 84%
    16:00 +1°C° 0 mm 2 mps 705 mmHg 86%
    17:00 -1°C° 0.1 mm 2 mps 705 mmHg 86%
    18:00 -2°C° 0.1 mm 2 mps 706 mmHg 86%
    19:00 -2°C° 0.1 mm 2 mps 706 mmHg 86%
    20:00 -2°C° 0.4 mm 2 mps 706 mmHg 85%
    21:00 -2°C° 0.4 mm 2 mps 707 mmHg 85%
    22:00 -2°C° 0.4 mm 2 mps 707 mmHg 84%
    23:00 -2°C° 0.1 mm 2 mps 707 mmHg 85%

    Day after tomorrow, 16 December, Saturday

    Time Temperature Precipitation Wind Pressure Humidity
    00:00 -2°C° 0.1 mm 2 mps 707 mmHg 85%
    01:00 -2°C° 0.1 mm 2 mps 708 mmHg 86%
    02:00 -2°C° 0.1 mm 2 mps 708 mmHg 88%
    03:00 -2°C° 0.1 mm 2 mps 709 mmHg 90%
    04:00 -2°C° 0.1 mm 2 mps 709 mmHg 92%
    05:00 -2°C° 0.1 mm 2 mps 709 mmHg 93%
    06:00 0°C° 0.1 mm 1 mps 710 mmHg 94%
    07:00 0°C° 0.1 mm 1 mps 711 mmHg 95%
    08:00 0°C° 0.1 mm 1 mps 711 mmHg 94%
    09:00 -1°C° 0.1 mm 2 mps 712 mmHg 93%
    10:00 -1°C° 0.1 mm 2 mps 712 mmHg 92%
    11:00 +1°C° 0.2 mm 2 mps 713 mmHg 91%
    12:00 +1°C° 0.2 mm 2 mps 713 mmHg 90%
    13:00 +2°C° 0.2 mm 2 mps 713 mmHg 89%
    14:00 +1°C° 0.3 mm 2 mps 713 mmHg 90%
    15:00 +1°C° 0.3 mm 2 mps 714 mmHg 91%
    16:00 +1°C° 0.3 mm 2 mps 714 mmHg 93%
    17:00 -1°C° 0.5 mm 2 mps 715 mmHg 94%
    18:00 -1°C° 0.5 mm 2 mps 715 mmHg 95%
    19:00 +1°C° 0.5 mm 1 mps 716 mmHg 96%
    20:00 +1°C° 0.6 mm 1 mps 716 mmHg 96%
    21:00 0°C° 0.6 mm 1 mps 717 mmHg 96%
    22:00 0°C° 0.6 mm 1 mps 718 mmHg 96%
    23:00 0°C° 0.5 mm 1 mps 718 mmHg 96%

    17 December, Sunday

    Time Temperature Precipitation Wind Pressure Humidity
    00:00 -2°C° 0.5 mm 2 mps 719 mmHg 96%
    01:00 -2°C° 0.5 mm 2 mps 719 mmHg 96%
    02:00 -3°C° 0.2 mm 2 mps 719 mmHg 96%
    03:00 -3°C° 0.2 mm 2 mps 720 mmHg 96%
    04:00 -4°C° 0.2 mm 2 mps 720 mmHg 95%
    05:00 -4°C° 0.1 mm 2 mps 720 mmHg 95%
    06:00 -5°C° 0.1 mm 2 mps 721 mmHg 94%
    07:00 -6°C° 0.1 mm 2 mps 721 mmHg 93%
    08:00 -5°C° 0 mm 2 mps 722 mmHg 92%
    09:00 -5°C° 0 mm 2 mps 723 mmHg 90%
    10:00 -4°C° 0 mm 2 mps 723 mmHg 88%
    11:00 -3°C° 0 mm 2 mps 723 mmHg 86%
    12:00 -2°C° 0 mm 2 mps 723 mmHg 83%
    13:00 -1°C° 0 mm 2 mps 723 mmHg 81%
    14:00 -2°C° 0 mm 2 mps 724 mmHg 83%
    15:00 -1°C° 0 mm 1 mps 724 mmHg 86%
    16:00 -1°C° 0 mm 1 mps 724 mmHg 88%
    17:00 -2°C° 0 mm 1 mps 725 mmHg 88%
    18:00 -5°C° 0 mm 2 mps 725 mmHg 88%
    19:00 -6°C° 0 mm 2 mps 726 mmHg 88%
    20:00 -6°C° 0 mm 2 mps 726 mmHg 87%
    21:00 -7°C° 0 mm 2 mps 727 mmHg 86%
    22:00 -7°C° 0 mm 2 mps 727 mmHg 86%
    23:00 -7°C° 0 mm 2 mps 727 mmHg 85%

    18 December, Monday

    Time Temperature Precipitation Wind Pressure Humidity
    00:00 -7°C° 0 mm 2 mps 727 mmHg 84%
    01:00 -7°C° 0 mm 2 mps 727 mmHg 83%
    02:00 -6°C° 0 mm 2 mps 727 mmHg 83%
    03:00 -6°C° 0 mm 2 mps 726 mmHg 82%
    04:00 -5°C° 0 mm 2 mps 726 mmHg 81%
    05:00 -6°C° 0.1 mm 3 mps 726 mmHg 82%
    06:00 -5°C° 0.1 mm 3 mps 725 mmHg 83%
    07:00 -4°C° 0.1 mm 3 mps 725 mmHg 84%
    08:00 -3°C° 0.7 mm 4 mps 725 mmHg 86%
    09:00 -2°C° 0.7 mm 4 mps 724 mmHg 88%
    10:00 -1°C° 0.7 mm 5 mps 724 mmHg 91%
    11:00 0°C° 1.5 mm 5 mps 723 mmHg 91%
    12:00 0°C° 1.5 mm 5 mps 722 mmHg 92%
    13:00 +1°C° 1.5 mm 5 mps 722 mmHg 92%
    14:00 +1°C° 2.2 mm 5 mps 722 mmHg 93%
    15:00 +1°C° 2.2 mm 5 mps 722 mmHg 94%
    16:00 +1°C° 2.2 mm 5 mps 722 mmHg 94%
    17:00 +1°C° 1.7 mm 4 mps 722 mmHg 95%
    18:00 +1°C° 1.7 mm 4 mps 722 mmHg 95%
    19:00 +1°C° 1.7 mm 4 mps 722 mmHg 96%
    20:00 +1°C° 0.7 mm 4 mps 723 mmHg 96%
    21:00 +2°C° 0.7 mm 3 mps 723 mmHg 96%
    22:00 +2°C° 0.7 mm 3 mps 723 mmHg 96%
    23:00 +2°C° 0.2 mm 3 mps 723 mmHg 96%

    19 December, Tuesday

    Time Temperature Precipitation Wind Pressure Humidity
    00:00 +1°C° 0.2 mm 3 mps 724 mmHg 96%
    01:00 +2°C° 0.2 mm 2 mps 724 mmHg 96%
    02:00 +2°C° 0.1 mm 2 mps 724 mmHg 95%
    03:00 +2°C° 0.1 mm 2 mps 724 mmHg 95%
    04:00 +2°C° 0.1 mm 2 mps 724 mmHg 95%
    05:00 +3°C° 0 mm 1 mps 724 mmHg 94%
    06:00 +3°C° 0 mm 1 mps 725 mmHg 94%
    07:00 +3°C° 0 mm 1 mps 725 mmHg 94%
    08:00 +3°C° 0 mm 1 mps 725 mmHg 94%
    09:00 +3°C° 0 mm 1 mps 725 mmHg 94%
    10:00 +3°C° 0 mm 1 mps 726 mmHg 94%
    11:00 +4°C° 0 mm 1 mps 725 mmHg 95%
    12:00 +4°C° 0 mm 1 mps 725 mmHg 95%
    13:00 +4°C° 0 mm 1 mps 725 mmHg 95%
    14:00 +4°C° 0 mm 1 mps 726 mmHg 95%
    15:00 +3°C° 0 mm 1 mps 726 mmHg 96%
    16:00 +3°C° 0 mm 1 mps 726 mmHg 96%
    17:00 +2°C° 0 mm 1 mps 727 mmHg 95%
    18:00 +1°C° 0 mm 1 mps 727 mmHg 94%
    19:00 0°C° 0 mm 1 mps 728 mmHg 93%
    20:00 0°C° 0 mm 1 mps 728 mmHg 92%
    21:00 -1°C° 0 mm 1 mps 728 mmHg 90%
    22:00 -2°C° 0 mm 1 mps 728 mmHg 89%
    23:00 -2°C° 0 mm 1 mps 728 mmHg 88%
    Show more